Showing default

TURKMENALEM 52E/MONACOSA, 40617

Orbit data source: Space-Track

TURKMENALEM 52E/MONACOSA, 40617 is a TM and MC payload satellite in GEO that was launched on Mon, 27 Apr 2015 UTC via an FALCON 9 launch vehicle from the Air Force Eastern Test Range (AFETR). Payload-class satellites include a variety of spacecraft equipped with specific instruments for various scientific and technological missions. These include communications satellites like Starlink; space stations such as the ISS; scientific satellites like the Hubble; Earth observation satellites from companies like Planet Labs, Umbra, and HawkEye 360; GPS; miniature CubeSats for education and research; and military/defense satellites.

Not visible in the next 10 days
Identifier
40617, 2015-023A
Orbit
GEO
Country
Flag of TMTM / TMMC
Flag of MCMC / TMMC
Related business
Manufacturer
Thales Alenia
Mission
Operational Commercial Communications
Bus & Motor
SPACEBUS 4000C2, S400
Mass
4,700 kg wet, 1,823 kg dry
Launch date (UTC)
2015-04-27 (11 years ago)
Launch vehicle
FALCON 9
Launch site
Air Force Eastern Test Range (AFETR)
Object type
Payload
Rocket body
Debris
Shape & HBR
Box + 2 Pan, 15.0 m
Radar Cross Section
26.037 m², Large (>1 m²)

Expand to show TLE details & history
Last TLE update: 2 days ago

TLE from 2 days ago
0 TURKMENALEM 52E/MONACOSA
1 40617U 15023A   26171.40221052  .00000099  00000-0  00000+0 0  9999
2 40617   0.0450  81.1169 0002806   2.0749  22.2211  1.00272541 40885
Epoch: 2026-06-20T09:39Z
TLE epoch observation values (Epoch: 2026-06-20T09:39:10.988Z)
Latitude
0.03412°
Longitude
52.02427°
Altitude
35,774.87 km
Speed
3.076 km/s
True Right ascension
07h 01m 44s
True Declination
0° 02' 03"
Sunlit
Object was in daylight at epoch
Visualization orbit readout
Latitude
Unknown
Longitude
Unknown
Altitude
Unknown
Speed
Unknown
Apparent Right ascension
Unknown
Apparent Declination
Unknown
Sunlit
N/A
Visualization observer readout
Local Sidereal Time
21:44:33
Azimuth
Unknown
Elevation
Unknown
Doppler factor
Unknown
Orbital elements
Apogee altitude
35,799.285 km
Perigee altitude
35,775.622 km
Semi-major axis
42,165.59 km
Eccentricity
0.00028
Inclination
0.045°
RAAN
81.1169°
Arg. of periapsis
2.0749°
True anomaly
22.23326°
Mean anomaly
22.2211°
Eccentric anomaly
22.22718°
Mean motion
0.25067 °/min
Orbital period
1,436.14 mins
BSTAR
0
Loading maneuver chart data...
Computing Atmospheric mass density...
Loading historical data...
Loading historical data...
Loading historical data...
Loading historical data...
Loading historical data...
Loading historical data...
Loading historical data...
Other satellites on launch #23 in the year 2015 (2015-04-27 UTC)

Documentation

Showing up to 5 results
|